Wind_Speed
10 10 9 10 10 10 10 9 9 10 11 11 10 10 10 10 10 10 9 9 9 9 9 9 9 9 9 9 9 10 10 10 11 11 10 10 11 11 12 12 13 14 15 15
10 9 10 11 11 11 11 10 10 11 11 11 11 11 11 10 10 10 10 10 10 10 9 9 9 9 9 9 9 10 10 10 10 10 10 11 11 12 12 13 13 14 15 15
10 10 11 11 11 11 11 11 11 11 12 12 12 11 12 11 10 10 11 11 11 10 10 10 10 10 10 10 10 10 10 10 10 10 11 11 11 12 12 13 13 14 14 15
11 11 11 11 11 11 11 11 12 12 12 12 12 11 11 11 11 11 12 12 11 11 11 11 11 11 10 10 10 10 10 10 10 11 11 11 12 12 12 12 13 14 14 15
11 11 12 12 11 12 11 12 12 12 13 12 12 12 10 11 12 12 12 13 12 13 13 13 12 12 11 11 11 11 10 10 11 11 12 12 12 12 12 12 13 14 14 15
12 12 12 11 11 12 12 13 13 12 12 12 11 12 10 11 12 13 13 13 13 13 13 13 13 12 12 12 12 12 11 11 12 11 11 11 11 12 13 14 14 14 15 15
13 13 13 12 12 13 13 13 14 14 12 12 12 12 11 11 11 12 13 13 13 14 13 13 13 12 12 12 12 13 13 13 13 12 12 12 12 13 14 14 15 15 15 15
13 13 14 13 13 13 13 14 15 15 13 12 13 13 11 12 12 12 13 14 14 14 14 13 13 13 12 12 13 13 14 14 14 13 13 13 13 14 14 15 15 15 15 15
14 14 14 15 14 14 14 15 15 16 15 13 13 12 11 13 13 13 14 14 14 14 14 14 14 13 13 14 14 14 15 15 15 14 14 14 15 15 16 16 17 16 16 16
15 15 15 15 16 16 16 16 17 17 17 16 13 12 12 13 13 13 14 14 14 14 15 15 14 14 15 15 15 15 16 15 16 16 16 16 17 17 18 18 18 18 17 17
17 17 16 16 17 17 17 18 18 18 19 18 15 12 13 13 14 14 15 15 16 16 16 16 16 16 16 16 16 17 17 16 16 16 17 18 19 19 19 20 20 19 18 18
18 18 17 16 17 18 19 18 19 20 20 19 18 15 14 14 15 15 15 16 16 17 17 17 17 17 17 17 18 18 18 17 17 17 18 19 19 20 21 21 21 21 20 19
19 20 19 19 18 18 19 19 20 20 20 20 19 17 16 16 16 16 17 17 17 17 18 18 18 18 18 18 19 19 19 19 19 19 19 20 21 21 22 22 23 22 22 21
21 21 21 21 20 20 20 20 20 21 22 21 20 18 18 18 19 19 19 19 19 19 19 19 19 19 19 19 20 20 21 21 21 21 22 22 22 23 23 23 23 23 23 22
23 22 22 22 22 22 22 21 22 22 22 23 22 21 19 19 20 20 20 21 21 21 21 21 20 20 20 20 21 22 22 22 23 23 23 24 24 24 24 24 24 24 24 23
24 24 24 24 24 24 24 23 23 23 23 24 24 22 20 21 21 21 22 22 22 22 21 22 22 21 21 21 22 22 23 23 23 24 24 24 25 25 25 26 25 25 25 25
24 25 25 26 25 26 25 23 23 24 24 24 24 23 23 23 23 23 23 23 23 23 22 22 23 23 22 22 22 23 24 24 25 25 26 26 26 27 27 27 27 26 27 27
24 25 26 26 26 27 25 24 24 24 24 24 24 24 25 26 26 25 25 24 24 24 24 24 24 24 24 24 24 24 25 26 26 26 27 27 27 28 27 28 27 26 27 27
24 25 27 27 28 27 25 25 25 26 25 25 25 26 26 27 27 27 26 25 25 26 25 25 25 26 26 26 26 26 27 27 27 28 28 28 28 28 28 27 27 28 28 28
25 25 27 28 28 29 26 25 26 27 27 26 26 26 26 27 28 27 27 27 27 27 27 27 26 27 27 27 28 28 28 28 28 28 28 28 28 28 28 28 28 29 29 29
25 26 27 28 29 29 28 28 27 27 27 27 27 27 27 27 28 27 26 26 26 28 28 28 27 27 28 28 28 28 28 28 28 28 28 28 28 29 29 29 29 30 30 30
27 27 28 29 30 30 28 28 28 28 28 28 28 28 28 29 28 28 28 28 28 28 29 29 29 29 29 29 29 29 29 29 29 28 29 29 29 29 30 30 30 31 31 30
29 29 29 30 31 29 29 29 30 30 29 29 29 29 30 31 30 30 30 30 30 30 30 29 30 30 30 30 30 30 30 30 29 29 30 30 30 31 31 31 31 31 31 31
30 30 31 31 30 30 30 30 30 31 31 31 30 30 31 32 32 32 32 32 31 31 31 31 30 31 31 32 32 32 31 31 31 31 31 32 32 32 32 32 32 32 31 30
30 31 32 32 31 31 31 31 31 32 32 32 32 31 32 33 33 33 33 32 31 31 31 31 31 31 32 32 32 32 32 33 33 33 33 33 33 34 34 33 32 32 31 30
31 32 32 32 32 33 33 33 33 33 33 33 33 32 32 33 34 34 34 33 33 33 32 32 32 32 32 32 32 32 32 32 32 33 33 33 33 34 33 32 31 30 30 30
Wind_Direction
263 261 262 262 262 263 263 263 263 259 260 258 259 259 258 257 259 258 259 261 264 270 275 279 282 285 286 288 290 292 292 293 292 287 284 282 283 284 286 287 289 288 285 283
263 262 261 260 260 263 263 261 264 264 264 262 260 259 257 255 256 260 259 261 263 267 273 279 283 287 288 288 288 289 290 292 293 289 285 283 283 285 286 287 290 290 289 287
262 261 262 261 262 263 265 266 266 268 269 268 264 260 258 260 258 255 254 258 263 269 275 281 284 287 288 288 287 287 287 291 293 292 289 285 286 289 288 289 292 292 292 289
262 261 263 262 263 265 266 267 266 269 269 269 270 264 257 259 262 260 257 258 263 269 275 279 281 284 287 287 285 284 286 290 293 293 291 288 288 290 292 291 290 292 294 293
262 262 263 263 264 265 267 264 266 268 269 271 273 273 262 262 262 264 262 260 264 269 272 275 277 277 281 284 284 283 285 288 291 295 294 291 291 292 292 291 291 292 294 294
261 261 261 262 262 263 263 263 267 270 268 269 274 276 271 268 264 264 265 266 267 270 273 274 273 274 276 278 280 283 284 286 290 291 293 292 293 293 293 294 294 294 295 295
261 259 259 258 257 260 262 265 267 269 268 269 273 275 274 271 267 265 268 270 270 270 270 272 275 274 274 276 278 281 284 288 290 291 292 291 292 292 294 295 296 296 297 296
264 260 260 259 258 260 262 265 268 273 273 271 272 275 273 273 268 265 267 269 269 270 269 271 273 276 278 278 278 280 284 287 289 290 291 291 291 292 293 296 295 294 296 296
265 264 261 261 259 259 260 263 268 272 272 273 274 276 271 270 268 265 267 270 272 273 273 271 274 277 280 280 278 280 282 285 288 290 289 289 291 291 293 293 294 295 297 297
265 263 261 261 259 258 261 264 266 270 273 276 278 279 274 271 269 268 268 270 274 275 274 273 274 276 279 280 281 283 283 285 286 288 288 288 289 290 292 294 295 296 296 297
261 261 260 260 259 263 263 263 267 269 272 277 281 279 276 273 271 271 272 273 275 276 276 274 274 277 279 280 282 284 284 285 287 287 287 287 288 288 289 292 293 293 293 294
260 261 259 258 260 262 264 264 267 270 274 276 278 277 276 273 272 272 273 275 276 276 276 273 273 276 278 279 281 283 284 285 286 288 287 288 288 289 289 290 291 292 291 291
261 261 261 259 260 262 264 267 269 270 271 272 274 274 273 271 272 273 274 275 277 276 275 274 274 275 277 278 280 282 283 285 287 288 289 287 287 288 289 290 290 290 289 289
261 261 262 264 264 263 264 266 268 269 269 271 272 273 271 271 271 273 274 276 277 277 277 277 277 276 278 279 280 281 282 284 286 287 288 287 287 286 287 288 289 288 288 287
261 261 262 264 265 264 264 265 267 268 270 272 272 271 271 268 269 270 273 275 277 279 280 279 280 280 281 281 280 281 282 283 284 286 287 287 288 287 287 287 287 287 287 286
262 263 263 265 265 265 265 265 267 268 271 272 272 271 270 267 269 271 272 275 278 279 280 280 281 282 282 280 280 281 282 283 284 286 288 288 287 287 287 287 287 286 286 285
263 263 264 266 266 265 264 265 266 268 270 272 273 272 270 269 271 272 273 273 276 278 278 279 280 280 279 279 280 281 283 285 286 286 287 288 288 287 287 286 285 286 285 284
267 265 266 269 269 265 266 266 266 267 268 270 271 272 271 270 270 271 271 272 274 276 277 277 278 278 280 280 280 281 283 285 286 286 286 287 287 286 286 286 286 286 286 284
269 270 269 268 268 268 268 269 269 269 268 269 270 270 271 271 270 270 270 269 271 272 274 276 277 277 279 280 281 282 284 285 286 286 285 285 285 285 285 285 285 286 286 285
271 271 270 270 270 270 270 270 270 269 269 269 269 270 270 270 271 271 270 271 272 273 274 275 276 277 278 280 281 282 283 284 285 285 285 285 285 284 285 285 285 286 285 284
270 269 269 270 271 272 273 272 271 271 271 270 269 269 270 271 271 271 270 271 272 273 273 274 276 277 279 280 281 283 283 283 284 285 285 285 285 285 285 285 286 286 285 284
270 269 269 270 270 271 273 273 272 272 272 272 271 270 270 271 271 271 270 270 271 272 272 274 275 276 278 279 280 282 283 283 284 284 284 284 285 285 286 285 286 285 283 283
269 270 270 271 271 272 273 273 272 272 271 272 271 271 271 271 271 272 272 271 272 274 274 275 275 277 279 279 280 281 283 284 284 284 284 284 284 285 286 285 285 284 284 283
270 269 269 270 269 270 272 273 273 272 272 271 271 270 271 272 272 272 272 273 274 273 275 275 275 277 279 279 279 280 282 283 284 283 283 284 285 285 286 286 285 284 283 282
270 270 270 269 270 270 271 271 271 269 269 269 270 270 270 271 271 271 271 271 273 274 274 275 276 276 278 280 281 281 282 283 282 283 284 285 285 286 285 284 283 283 282 282
270 271 270 269 269 270 269 269 269 268 268 268 268 269 270 271 271 270 269 270 271 274 275 275 276 276 278 280 280 281 282 283 283 284 285 286 285 284 283 283 282 282 283 284
Height
5825 5826 5826 5827 5827 5828 5828 5828 5828 5829 5829 5829 5830 5830 5830 5831 5831 5831 5831 5831 5831 5831 5831 5830 5830 5829 5829 5828 5827 5827 5826 5825 5824 5824 5823 5823 5822 5822 5821 5820 5819 5818 5818 5817
5823 5823 5824 5824 5824 5825 5826 5826 5826 5826 5826 5826 5827 5827 5827 5828 5828 5828 5828 5829 5829 5829 5828 5828 5827 5827 5826 5826 5825 5824 5824 5823 5822 5821 5820 5820 5819 5819 5818 5817 5816 5815 5814 5813
5820 5822 5821 5821 5822 5822 5823 5823 5824 5824 5824 5824 5824 5825 5825 5825 5825 5826 5826 5826 5826 5826 5826 5825 5825 5824 5824 5823 5823 5822 5821 5820 5819 5818 5817 5817 5816 5815 5815 5814 5813 5811 5810 5809
5817 5818 5818 5819 5819 5820 5820 5821 5821 5821 5821 5821 5822 5822 5822 5822 5822 5823 5823 5823 5823 5823 5823 5823 5822 5822 5821 5820 5820 5819 5818 5817 5816 5815 5814 5814 5813 5812 5811 5810 5809 5808 5807 5805
5815 5815 5816 5816 5817 5817 5818 5817 5818 5818 5818 5818 5818 5818 5820 5819 5819 5820 5820 5820 5820 5820 5820 5820 5820 5819 5818 5818 5817 5816 5815 5814 5813 5812 5811 5810 5809 5809 5808 5806 5806 5804 5803 5802
5812 5813 5813 5813 5814 5814 5814 5815 5815 5815 5815 5816 5816 5815 5817 5817 5817 5817 5817 5817 5816 5817 5817 5816 5816 5816 5815 5815 5814 5813 5812 5811 5810 5809 5808 5807 5806 5805 5804 5803 5802 5801 5799 5798
5809 5810 5810 5810 5811 5811 5812 5812 5812 5812 5812 5813 5813 5812 5814 5813 5813 5813 5813 5813 5813 5813 5813 5813 5812 5812 5812 5811 5810 5810 5809 5808 5807 5806 5805 5804 5803 5802 5801 5800 5799 5797 5796 5794
5806 5807 5807 5807 5808 5808 5809 5809 5810 5810 5810 5810 5809 5809 5811 5810 5810 5810 5810 5810 5810 5810 5810 5810 5809 5808 5808 5808 5807 5806 5805 5804 5803 5802 5802 5801 5800 5799 5798 5797 5795 5794 5792 5790
5802 5804 5804 5804 5805 5805 5805 5805 5807 5806 5806 5806 5806 5807 5808 5807 5807 5807 5807 5807 5806 5806 5806 5806 5805 5805 5804 5804 5803 5802 5802 5801 5800 5799 5798 5797 5796 5795 5794 5793 5791 5790 5788 5787
5799 5800 5801 5801 5801 5802 5802 5802 5802 5802 5802 5802 5803 5804 5804 5803 5803 5803 5803 5803 5803 5803 5802 5802 5801 5801 5801 5800 5799 5798 5797 5796 5795 5795 5794 5793 5792 5791 5790 5789 5787 5785 5784 5782
5795 5796 5797 5797 5798 5799 5799 5799 5798 5798 5798 5799 5799 5803 5801 5800 5800 5800 5800 5800 5799 5799 5799 5798 5797 5797 5796 5796 5795 5794 5793 5792 5791 5790 5789 5788 5787 5786 5785 5784 5782 5780 5779 5778
5790 5791 5792 5794 5794 5794 5794 5794 5795 5795 5795 5794 5795 5799 5797 5796 5796 5796 5796 5795 5795 5795 5794 5794 5793 5793 5792 5791 5790 5789 5788 5788 5787 5786 5785 5784 5782 5781 5780 5778 5777 5775 5774 5772
5786 5787 5787 5789 5791 5791 5790 5790 5790 5790 5790 5790 5790 5794 5792 5792 5791 5791 5791 5791 5791 5790 5790 5789 5788 5788 5787 5786 5785 5784 5784 5783 5782 5781 5780 5779 5777 5776 5774 5773 5771 5770 5768 5767
5780 5781 5783 5784 5784 5785 5785 5785 5785 5785 5785 5785 5786 5787 5788 5787 5786 5786 5786 5786 5786 5785 5785 5784 5783 5783 5782 5781 5780 5779 5778 5778 5776 5775 5774 5773 5771 5770 5769 5767 5765 5764 5762 5761
5774 5775 5776 5777 5778 5778 5779 5780 5780 5780 5780 5780 5781 5781 5782 5782 5781 5781 5780 5780 5780 5780 5779 5778 5778 5777 5776 5775 5774 5773 5772 5772 5771 5769 5768 5767 5765 5764 5762 5761 5759 5758 5756 5755
5768 5769 5770 5771 5772 5771 5772 5774 5774 5774 5774 5774 5774 5775 5776 5775 5775 5775 5775 5774 5774 5774 5773 5772 5772 5771 5770 5769 5768 5767 5766 5765 5764 5763 5761 5760 5759 5757 5756 5754 5752 5751 5749 5748
5762 5763 5764 5764 5765 5764 5766 5768 5768 5768 5768 5769 5768 5770 5769 5769 5769 5769 5768 5768 5768 5767 5767 5766 5766 5765 5764 5763 5762 5761 5760 5759 5758 5756 5755 5753 5752 5750 5748 5747 5745 5744 5742 5741
5756 5756 5756 5756 5758 5758 5762 5761 5761 5761 5762 5761 5761 5761 5762 5762 5762 5761 5762 5761 5761 5760 5760 5760 5759 5758 5757 5756 5755 5754 5753 5752 5750 5749 5747 5745 5744 5742 5741 5739 5738 5736 5735 5734
5749 5749 5749 5749 5749 5750 5753 5754 5754 5753 5754 5755 5754 5754 5754 5754 5754 5754 5754 5754 5754 5753 5753 5752 5752 5751 5750 5749 5748 5747 5745 5744 5742 5741 5739 5737 5736 5735 5733 5732 5730 5729 5727 5726
5743 5742 5743 5742 5742 5742 5747 5747 5746 5747 5747 5747 5746 5746 5746 5746 5747 5748 5747 5746 5746 5746 5745 5745 5744 5743 5742 5741 5740 5739 5737 5736 5735 5733 5731 5729 5728 5727 5725 5724 5722 5721 5719 5718
5735 5735 5735 5734 5734 5735 5738 5738 5738 5739 5740 5739 5738 5738 5739 5738 5739 5739 5739 5739 5738 5738 5738 5737 5736 5735 5734 5733 5732 5731 5729 5728 5726 5725 5723 5721 5720 5719 5717 5716 5714 5713 5711 5709
5727 5727 5727 5727 5726 5730 5730 5729 5730 5730 5729 5729 5730 5730 5730 5730 5730 5730 5730 5730 5730 5730 5730 5729 5728 5727 5726 5725 5724 5722 5721 5720 5718 5716 5715 5713 5712 5710 5709 5707 5706 5704 5702 5701
5718 5719 5718 5719 5721 5721 5720 5720 5720 5720 5721 5720 5721 5721 5721 5721 5721 5721 5721 5721 5721 5721 5720 5720 5719 5718 5717 5716 5715 5713 5712 5711 5709 5708 5706 5705 5703 5702 5700 5698 5697 5695 5693 5692
5710 5710 5709 5709 5710 5711 5711 5711 5711 5711 5711 5711 5711 5711 5712 5712 5712 5712 5712 5711 5711 5711 5711 5710 5710 5709 5708 5707 5705 5704 5702 5701 5700 5698 5697 5695 5694 5692 5691 5689 5687 5686 5684 5683
5701 5700 5700 5700 5701 5701 5702 5701 5701 5700 5700 5701 5701 5701 5702 5702 5702 5702 5702 5702 5702 5701 5701 5700 5700 5699 5698 5697 5695 5694 5693 5691 5690 5689 5687 5686 5684 5682 5681 5679 5678 5676 5675 5673
5692 5691 5691 5691 5692 5691 5692 5691 5691 5690 5690 5690 5691 5691 5691 5691 5692 5692 5692 5692 5692 5691 5691 5691 5690 5689 5688 5687 5686 5684 5683 5681 5680 5679 5677 5676 5674 5672 5671 5669 5668 5666 5665 5664